[TLELIST] Archives

 

[list_settings.list_name] Current TLEs

December 22nd 2009 PST

HST 1 20580U 90037B 09354.37626171 .00000406 00000-0 18295-4 0 4914 2 20580 028.4720 327.0879 0003273 105.5218 254.5846 15.00868287877857 ISS (ZARYA) 1 25544U 98067A 09355.38924199 .00019446 00000-0 12160-3 0 2144 2 25544 051.6442 064.5659 0008486 096.5676 003.8996 15.76830280635452 CXO 1 25867U 99040B 09354.25000000 .00000050 00000-0 10000-3 0 4071 2 25867 066.2710 061.9752 7870139 275.2260 359.4126 00.37805398 5717 ____________________________________________________________________ These 2-Line ...Continue Reading

[list_settings.list_name] Current TLEs

December 21st 2009 PST

HST 1 20580U 90037B 09351.11789052 .00000316 00000-0 11404-4 0 4905 2 20580 028.4720 348.3487 0003274 070.8937 289.2065 15.00866238877369 ISS (ZARYA) 1 25544U 98067A 09354.37358069 .00144858 00000-0 86866-3 0 2071 2 25544 051.6388 069.8006 0007723 098.3702 352.8005 15.76795175635291 CXO 1 25867U 99040B 09354.25000000 .00000050 00000-0 10000-3 0 4071 2 25867 066.2710 061.9752 7870139 275.2260 359.4126 00.37805398 5717 ____________________________________________________________________ These 2-Line ...Continue Reading

[list_settings.list_name] Current TLEs

December 20th 2009 PST

HST 1 20580U 90037B 09351.11789052 .00000316 00000-0 11404-4 0 4905 2 20580 028.4720 348.3487 0003274 070.8937 289.2065 15.00866238877369 ISS (ZARYA) 1 25544U 98067A 09353.36406006 .00025595 00000-0 15915-3 0 2000 2 25544 051.6444 075.0076 0008066 093.4904 023.3908 15.76763746635135 CXO 1 25867U 99040B 09354.25000000 .00000050 00000-0 10000-3 0 4071 2 25867 066.2710 061.9752 7870139 275.2260 359.4126 00.37805398 5717 ____________________________________________________________________ These 2-Line ...Continue Reading

[list_settings.list_name] Current TLEs

December 19th 2009 PST

HST 1 20580U 90037B 09351.11789052 .00000316 00000-0 11404-4 0 4905 2 20580 028.4720 348.3487 0003274 070.8937 289.2065 15.00866238877369 ISS (ZARYA) 1 25544U 98067A 09352.40894975 .00020221 00000-0 12704-3 0 1935 2 25544 051.6442 079.9291 0007981 091.6255 000.1162 15.76698655634982 CXO 1 25867U 99040B 09349.03082896 .00000000 00000-0 10000-3 0 4068 2 25867 066.2540 062.1359 7857626 275.2485 008.9177 00.37815776 5699 ____________________________________________________________________ These 2-Line ...Continue Reading

[list_settings.list_name] Current TLEs

December 18th 2009 PST

HST 1 20580U 90037B 09351.11789052 .00000316 00000-0 11404-4 0 4905 2 20580 028.4720 348.3487 0003274 070.8937 289.2065 15.00866238877369 ISS (ZARYA) 1 25544U 98067A 09351.39361068 .00017725 00000-0 11215-3 0 1890 2 25544 051.6448 085.1634 0007852 091.3023 353.4172 15.76646095634824 CXO 1 25867U 99040B 09351.58333333 -.00000068 00000-0 10000-3 0 4050 2 25867 066.2603 062.0677 7866146 275.2192 356.4217 00.37806198 5709 ____________________________________________________________________ These 2-Line ...Continue Reading

[list_settings.list_name] Current TLEs

December 17th 2009 PST

HST 1 20580U 90037B 09349.25596042 .00000306 00000-0 10613-4 0 4890 2 20580 028.4714 000.4989 0003431 049.9171 310.1675 15.00865527877087 ISS (ZARYA) 1 25544U 98067A 09350.37732443 .00017624 00000-0 11172-3 0 1829 2 25544 051.6441 090.4027 0007981 086.5069 346.0095 15.76607247634661 CXO 1 25867U 99040B 09348.95833333 -.00000118 00000-0 10000-3 0 4047 2 25867 066.2508 062.1747 7860873 275.2077 359.0989 00.37807542 5692 ____________________________________________________________________ These 2-Line ...Continue Reading

[list_settings.list_name] Current TLEs

December 16th 2009 PST

HST 1 20580U 90037B 09349.25596042 .00000306 00000-0 10613-4 0 4890 2 20580 028.4714 000.4989 0003431 049.9171 310.1675 15.00865527877087 ISS (ZARYA) 1 25544U 98067A 09349.36409446 .00012761 00000-0 82252-4 0 1768 2 25544 051.6440 095.6229 0007872 084.6421 353.1623 15.76556919634509 CXO 1 25867U 99040B 09348.95833333 -.00000118 00000-0 10000-3 0 4047 2 25867 066.2508 062.1747 7860873 275.2077 359.0989 00.37807542 5692 ____________________________________________________________________ These 2-Line ...Continue Reading

[list_settings.list_name] Current TLEs

December 15th 2009 PST

HST 1 20580U 90037B 09347.12804199 .00000369 00000-0 15511-4 0 4889 2 20580 028.4712 014.3906 0003246 025.8244 334.2584 15.00865374876766 ISS (ZARYA) 1 25544U 98067A 09348.41226332 .00011106 00000-0 72227-4 0 1699 2 25544 051.6439 100.5298 0007857 080.6252 351.3338 15.76524211634356 CXO 1 25867U 99040B 09348.95833333 -.00000118 00000-0 10000-3 0 4047 2 25867 066.2508 062.1747 7860873 275.2077 359.0989 00.37807542 5692 ____________________________________________________________________ These 2-Line ...Continue Reading

[list_settings.list_name] Current TLEs

December 14th 2009 PST

HST 1 20580U 90037B 09347.12804199 .00000369 00000-0 15511-4 0 4889 2 20580 028.4712 014.3906 0003246 025.8244 334.2584 15.00865374876766 ISS (ZARYA) 1 25544U 98067A 09347.46449729 .00010325 00000-0 67521-4 0 1637 2 25544 051.6435 105.4152 0007876 077.2824 012.0350 15.76498312634204 CXO 1 25867U 99040B 09346.29166667 .00000005 00000-0 10000-3 0 4034 2 25867 066.2396 062.2751 7853176 275.2112 356.0892 00.37807222 5685 ____________________________________________________________________ These 2-Line ...Continue Reading

[list_settings.list_name] Current TLEs

December 13th 2009 PST

HST 1 20580U 90037B 09343.60367032 .00000302 00000-0 10356-4 0 4876 2 20580 028.4710 037.3903 0003225 346.8092 013.2428 15.00863663876232 ISS (ZARYA) 1 25544U 98067A 09345.94527975 .00011370 00000-0 74031-4 0 1565 2 25544 051.6439 113.2434 0007777 071.5937 029.8382 15.76468271633964 CXO 1 25867U 99040B 09346.29166667 .00000005 00000-0 10000-3 0 4034 2 25867 066.2396 062.2751 7853176 275.2112 356.0892 00.37807222 5685 ____________________________________________________________________ These 2-Line ...Continue Reading
  • This mailing list is a public mailing list - anyone may join or leave, at any time.
  • This mailing list is announce-only.

International Space Station (ISS) / Hubble Space Telescope (HST) / Chandra X-Ray Observatory Orbital Data via EMAIL

Privacy Policy:

Private list